Flag for Eritrea Weather past 2 weeks in Teseney, Eritrea

Now
99 °F

Sunny.


Feels Like: 93 °F
Forecast: 71 / 106 °F
Wind: 7 mph from North

Location: Khartoum Airport

Current Time: Apr 19, 2015 at 5:37:14 PM

Latest Report: Apr 19, 2015 at 5:00 PM


Visibility: 10 mi

Pressure: 29.80 "Hg

Humidity: 7%

Dew point: 23 °F

Location of TeseneyLocation

Historic Weather in Teseney — Graph

°F

Teseney temperature yesterday

Maximum temperature yesterday: 95 °F (at 5:00 PM)
Minimum temperature yesterday: 70 °F (at 6:00 AM)
Average temperature yesterday: 82 °F

Past Weeks' High & Low Weather Summary

 TemperatureHumidityPressure
High106 °F (Apr 9, 4:00 PM)44% (Apr 12, 11:00 PM)32.01 "Hg (Apr 12, 11:00 PM)
Low64 °F (Apr 12, 7:00 AM)2% (Apr 10, 2:00 PM)29.68 "Hg (Apr 9, 4:30 PM)
Average85 °F10%29.90 "Hg
* Reported Apr 4 4:00 PM — Apr 19 4:30 PM, Teseney, Weather by CustomWeather, © 2015

Note: Actual official high and low records may vary slightly from our data, if they occured in-between our weather recording intervals... More about our weather records

Advertising

Teseney weather history for previous 24 hours

 ConditionsComfort  
Time TempWeatherWind HumidityBarometerVisibility
4:30 PM
Sun, Apr 19
N/ASunny.12 mphN/A29.80 "Hg10 mi
4:00 PM97 °FSunny.12 mph8%29.80 "Hg10 mi
3:30 PMN/ASunny.7 mphN/A29.83 "Hg10 mi
3:00 PM95 °FSunny.9 mph6%29.83 "Hg10 mi
2:30 PMN/ASunny.5 mphN/A29.86 "Hg10 mi
2:00 PM95 °FSunny.7 mph18%29.86 "Hg10 mi
12:00 PM90 °FSunny.10 mph8%29.92 "Hg10 mi
11:00 AM86 °FSunny.14 mph11%29.95 "Hg10 mi
10:30 AMN/ASunny.16 mphN/A29.95 "Hg10 mi
10:00 AM82 °FSunny.16 mph11%29.95 "Hg10 mi
9:30 AMN/ASunny.15 mphN/A29.95 "Hg10 mi
9:00 AM79 °FSunny.13 mph10%29.95 "Hg10 mi
8:30 AMN/ASunny.13 mphN/A29.92 "Hg10 mi
8:00 AM73 °FSunny.13 mph14%29.92 "Hg10 mi
7:30 AMN/ASunny.10 mphN/A29.89 "Hg10 mi
7:00 AM72 °FSunny.10 mph12%29.89 "Hg10 mi
6:30 AMN/AClear.9 mphN/A29.89 "Hg10 mi
6:00 AM73 °FClear.12 mph9%29.89 "Hg10 mi
5:30 AMN/AClear.N/AN/A29.89 "Hg10 mi
5:00 AM75 °FClear.13 mph11%29.89 "Hg10 mi
4:30 AMN/AClear.12 mphN/A29.89 "Hg10 mi
4:00 AM75 °FClear.10 mph11%29.89 "Hg10 mi
3:00 AM75 °FClear.12 mph11%29.89 "Hg10 mi
2:00 AM77 °FClear.12 mph11%29.89 "Hg10 mi
1:30 AMN/AClear.10 mphN/A29.89 "Hg10 mi
1:00 AM79 °FClear.13 mph10%29.92 "Hg10 mi
12:00 AM82 °FClear.14 mph9%29.92 "Hg10 mi
11:30 PM
Sat, Apr 18
N/AClear.13 mphN/A29.92 "Hg10 mi
11:00 PM82 °FClear.13 mph9%29.92 "Hg10 mi
10:30 PMN/AClear.9 mphN/A29.92 "Hg10 mi
10:00 PM86 °FClear.10 mph9%29.92 "Hg10 mi
9:30 PMN/AClear.8 mphN/A29.89 "Hg10 mi
9:00 PM91 °FClear.8 mph6%29.92 "Hg10 mi
8:30 PMN/AClear.8 mphN/A29.89 "Hg10 mi
8:00 PM88 °FClear.8 mph7%29.89 "Hg10 mi
7:30 PMN/AClear.8 mphN/A29.86 "Hg10 mi
7:00 PM91 °FSunny.10 mph7%29.86 "Hg10 mi
6:30 PMN/ASunny.13 mphN/A29.86 "Hg10 mi
6:00 PM93 °FSunny.16 mph8%29.83 "Hg10 mi
5:30 PMN/ASunny.16 mphN/A29.83 "Hg10 mi
5:00 PM95 °FSunny.13 mph6%29.83 "Hg10 mi
Weather by CustomWeather, © 2015

See weather overviewHow to use our weather pages